SCP
0 0 0 0 0 0 0 0 0 0 0 0 0 0 0 0 0 0 0 0 0 0 0 0 0 0 0 0 0 0 0 0 0 0 0 0 0 0 0 0 0 0 0 0
0 0 0 0 0 0 0 0 0 0 0 0 0 0 0 0 0 0 0 0 0 0 0 0 0 0 0 0 0 0 0 -0 0 0 0 0 0 0 0 0 0 0 0 0
0 0 0 0 0 0 0 0 0 0 0 0 0 0 0 0 0 0 0 0 0 0 0 0 0 0 0 0 0 0 0 0 0 0 0 0 0 0 0 0 0 0 0 0
0 0 0 0 0 0 0 0 0 0 0 0 0 0 0 0 0 0 0 0 0 0 0 0 0 0 0 0 0 0 0 0 0 -0 -0 -0 -0 0 0 0 0 0 0 0
0 0 0 0 0 0 0 0 0 0 0 0 0 0 0 0 0 0 0 0 0 0 0 0 0 0 0 0 0 0 0 -0 0 0 0 -0 -0 0 0 0 0 0 0 0
0 0 0 0 0 0 0 0 0 0 0 0 0 0 0 0 0 0 0 0 0 0 0 0 0 0 0 0 0 0 0 0 0 0 0 0 0 0 0 0 0 0 0 0
0 0 0 0 0 0 0 0 0 0 0 0 0 0 0 0 0 0 0 0 0 0 0 0 0 0 0 0 0 0 0 0 0 -0 0 0 -0 0 0 0 0 0 0 0
0 0 0 0 0 0 0 0 0 0 0 0 0 0 0 0 0 0 0 0 0 0 0 0 0 0 0 0 0 0 0 0 0 0 0 0 0 0 0 0 0 0 0 0
-0 0 0 0 0 0 0 0 0 0 0 0 0 0 0 0 0 0 0 0 0 0 0 0 0 0 -0 0 0 -0 0 0 0 0 0 0 -0 -0 0 0 0 0 0 0
0 0 0 0 0 0 0 0 0 0 0 0 0 0 0 0 0 0 0 0 0 0 0 0 0 0 0 0 -0 0 0 0 0 0 0 0 -0 0 0 0 0 0 0 0
0 0 0 0 0 0 0 0 0 0 0 0 0 0 0 0 0 0 0 0 0 0 0 0 0 0 0 0 0 0 0 0 0 0 0 0 0 0 0 0 0 0 0 0
-0 -0 -0 -0 0 0 0 0 0 0 0 0 0 0 0 0 0 0 0 0 0 0 0 0 0 0 0 0 0 0 0 0 0 0 0 0 0 0 0 0 0 0 0 0
-0 -0 -0 -0 0 0 0 0 0 0 0 0 0 0 0 0 0 0 0 0 0 0 0 0 0 0 0 0 0 0 0 0 0 0 0 0 0 0 0 0 0 0 0 0
-0 -0 -0 -0 -0 0 0 0 0 0 0 0 0 0 0 0 0 0 0 0 0 0 0 0 0 0 0 0 0 0 -0 0 0 0 0 0 0 0 0 0 0 0 0 0
-0 -0 -0 -0 -0 -0 0 0 0 0 0 0 0 0 0 0 0 0 0 0 0 0 0 0 0 0 0 0 0 0 0 0 0 0 0 0 0 0 0 0 0 0 0 0
-0 -0 -0 0 0 0 0 0 0 0 0 0 0 0 0 0 0 0 0 0 0 0 0 0 0 0 0 0 0 0 0 0 0 0 0 0 0 0 0 0 0 0 0 0
0 0 -0 -0 0 0 0 0 0 0 0 0 0 0 0 0 0 0 0 0 0 0 0 0 0 0 0 0 0 0 0 0 0 0 0 0 0 0 0 0 0 0 0 0
0 0 -0 -0 -0 -0 0 0 0 0 0 0 0 0 0 0 0 0 0 0 0 0 0 0 0 0 0 0 0 0 0 0 0 0 0 0 0 0 0 0 0 0 0 0
0 0 0 0 0 0 0 0 0 0 0 0 0 0 0 0 0 0 0 0 0 0 0 0 0 0 0 0 0 0 0 0 0 0 0 0 0 0 0 0 0 0 0 0
0 0 0 0 0 0 0 0 0 0 0 0 0 0 0 0 0 0 0 0 0 0 0 0 0 -0 -0 0 0 0 0 0 0 0 0 0 0 0 0 0 0 0 0 0
0 0 0 0 0 0 0 0 0 0 0 0 0 0 0 0 0 0 0 0 0 0 0 0 -0 -0 -0 0 0 0 0 0 0 0 0 0 0 0 0 0 0 0 0 0
0 0 0 0 0 0 0 0 0 0 0 0 0 0 0 0 0 0 0 0 0 0 0 0 0 0 -0 -0 -0 -0 -0 0 0 0 0 0 0 0 0 0 0 0 0 0
0 0 0 0 0 0 0 0 0 0 0 0 0 0 0 0 0 0 0 0 0 0 0 0 0 0 0 0 0 0 -0 -0 0 0 0 0 0 0 0 0 0 0 0 0
0 0 0 0 0 0 0 0 0 0 0 0 0 0 0 0 0 0 0 0 0 0 0 0 0 0 0 0 0 0 0 0 0 0 0 0 0 0 0 0 0 0 0 0
0 0 0 0 0 0 0 0 0 0 0 0 0 0 0 0 0 0 0 0 0 0 0 0 0 0 0 0 0 0 0 0 0 0 0 0 0 0 0 0 0 0 0 0
-0 0 0 0 0 0 0 0 0 0 0 0 0 0 0 0 0 0 0 0 0 0 0 0 0 0 0 0 0 0 0 0 0 0 0 0 0 0 0 0 0 0 0 0
-0 -0 -0 -0 0 0 0 0 0 0 0 0 0 0 0 0 0 0 0 0 0 0 0 0 0 0 0 0 0 0 0 0 0 0 0 0 0 -0 -0 0 0 0 0 0
Wind_Speed_500mb
97 106 101 93 93 91 92 45 8 126 145 30 13 19 18 17 10 10 10 11 12 15 15 16 22 21 11 27 29 33 27 7 10 22 5 32 37 20 23 13 14 9 3 26
96 96 85 90 92 105 78 35 49 113 131 17 10 8 9 10 9 6 7 8 6 5 14 10 11 15 17 27 25 15 17 11 16 8 10 3 27 38 34 29 2 29 24 33
90 87 80 81 90 94 80 32 15 27 33 18 27 25 8 13 12 9 11 10 10 9 7 4 13 11 7 16 22 38 28 9 16 22 10 6 26 40 51 47 31 44 32 63
71 77 79 81 101 109 69 28 11 19 12 14 12 12 9 23 11 7 8 8 6 14 8 6 7 1 6 3 2 10 12 8 9 31 35 25 19 32 41 51 54 35 57 58
69 79 74 85 91 64 66 22 20 30 8 53 30 9 3 11 5 10 3 14 12 9 13 10 9 11 7 7 9 7 9 18 23 43 38 31 45 47 36 50 51 51 61 59
104 113 90 80 68 63 39 66 68 37 15 24 17 7 10 11 16 6 19 18 11 5 8 7 5 9 12 11 4 2 7 1 8 43 12 24 35 56 60 59 51 52 58 80
102 82 65 48 50 54 94 72 52 26 9 14 9 10 9 11 6 15 6 19 9 10 16 8 5 14 25 26 25 26 10 10 5 27 11 32 35 32 48 55 67 58 62 76
97 79 66 59 55 58 80 60 50 20 10 12 19 20 18 23 17 8 10 9 18 19 11 7 11 9 8 18 34 37 39 19 11 15 22 23 36 32 24 47 72 64 59 70
87 82 77 70 67 60 67 45 38 43 20 2 33 15 14 8 7 7 3 13 15 11 5 7 9 7 11 10 8 15 30 32 20 16 13 20 49 22 42 34 47 61 61 80
63 69 69 64 57 43 39 50 42 49 22 13 28 9 11 21 9 7 6 7 7 15 6 6 7 9 10 7 13 7 7 15 38 40 33 19 41 19 31 31 44 59 80 89
65 63 63 64 61 48 34 55 39 34 25 25 16 20 28 26 28 8 12 9 3 4 4 7 8 8 12 9 18 13 22 15 18 24 19 38 17 17 35 33 82 34 61 99
34 28 28 27 27 26 24 40 37 39 26 21 22 22 23 23 26 26 21 5 11 13 6 4 6 4 4 3 11 11 25 30 22 17 17 11 28 15 6 13 26 22 31 47
33 30 26 23 22 19 21 29 28 30 31 20 15 12 25 28 30 29 14 11 11 12 11 3 7 14 5 7 10 12 9 20 25 30 43 13 31 17 38 38 39 42 28 26
31 30 29 27 25 24 20 27 27 21 17 9 4 12 13 21 23 26 30 11 12 10 8 5 6 4 11 7 7 6 1 17 20 16 11 31 10 39 69 54 46 43 34 23
31 30 29 29 28 25 24 28 25 19 7 11 14 15 14 16 13 9 6 13 24 11 9 6 7 10 10 8 5 6 14 10 5 9 31 27 43 50 70 63 63 53 53 43
40 38 35 32 30 24 13 10 18 9 10 8 4 8 7 14 12 16 27 20 23 15 12 6 12 1 12 5 5 12 23 24 28 22 62 60 72 56 46 60 56 48 40 35
27 19 17 17 16 13 13 12 12 12 9 5 6 5 5 2 8 3 2 5 14 16 8 10 4 15 14 5 3 36 40 42 42 30 47 22 29 38 61 53 45 31 28 23
21 21 23 23 21 26 28 27 15 10 4 5 6 4 5 19 8 7 6 2 4 9 5 7 6 10 9 4 15 32 41 54 14 49 27 34 37 34 42 44 40 27 26 24
10 11 11 11 9 8 10 15 20 19 7 11 7 5 5 24 14 7 4 4 3 1 4 5 5 3 5 3 23 29 42 38 48 58 29 32 35 37 42 48 46 43 42 36
3 2 4 5 6 8 8 7 4 7 17 15 4 5 4 17 17 9 14 5 3 1 4 9 5 2 1 17 25 29 36 41 39 48 41 51 50 50 47 46 44 42 39 36
4 5 4 7 6 5 5 9 15 17 9 17 11 11 4 18 6 3 8 3 3 2 2 3 2 2 5 28 25 27 30 32 28 26 24 24 30 38 41 42 42 43 43 43
11 11 11 7 5 7 13 2 8 11 1 16 8 11 9 9 6 3 6 2 5 6 11 4 2 2 18 24 26 25 26 29 29 26 26 26 28 33 37 38 39 41 40 40
10 5 6 14 17 16 8 1 6 4 8 13 17 6 12 8 5 2 5 6 7 6 7 2 2 7 20 23 25 24 24 25 26 26 25 25 26 36 42 40 38 37 39 40
5 10 13 9 9 4 6 5 5 1 6 16 14 8 5 8 8 2 6 6 6 7 6 4 1 15 18 19 22 25 27 29 30 31 32 33 33 33 35 38 37 39 42 39
12 11 6 5 4 3 0 5 5 2 10 13 2 5 4 4 5 5 4 12 4 6 5 3 6 16 17 19 22 23 24 27 30 31 34 35 35 35 36 38 35 36 36 37
12 14 12 7 4 1 3 3 2 7 10 2 1 3 7 5 4 7 6 7 7 6 5 8 16 14 16 16 17 20 23 25 27 30 33 35 36 37 37 36 36 39 39 40
10 11 17 12 12 6 3 4 10 14 7 1 5 5 10 1 6 4 7 7 6 5 10 9 10 10 9 10 15 19 22 25 28 29 31 32 32 31 30 34 39 40 39 39
Wind_Direction_500mb
170 167 174 174 174 168 172 149 169 160 151 144 157 158 145 115 136 95 100 98 114 158 147 162 191 207 220 203 157 202 183 233 214 212 189 214 206 206 208 206 217 238 160 258
161 166 171 170 173 167 147 148 117 150 149 148 130 122 97 101 116 106 121 118 125 135 149 139 192 176 239 252 178 174 167 215 258 323 244 336 217 214 207 219 51 215 223 255
159 165 164 165 172 169 143 142 123 125 133 142 143 131 111 111 77 96 88 110 96 117 126 61 171 176 249 241 175 216 167 195 213 236 257 124 214 211 214 209 220 238 227 256
155 157 162 162 163 154 146 127 107 125 123 140 114 97 107 126 113 72 100 41 154 138 128 112 104 122 333 304 29 194 186 257 221 248 256 262 247 234 222 224 224 224 241 242
152 162 163 161 153 160 142 110 141 84 75 135 119 115 219 117 119 118 80 115 179 157 143 157 140 135 205 243 4 200 192 241 253 263 257 246 247 250 260 231 233 237 248 254
125 134 124 138 149 149 118 126 120 119 111 144 122 164 162 114 121 14 157 153 130 167 189 159 209 226 237 238 108 10 317 46 204 265 252 256 252 237 235 231 243 227 230 238
114 125 115 110 139 161 134 123 115 105 83 112 119 114 92 131 126 129 139 142 105 151 123 104 178 224 235 221 232 208 239 254 312 273 292 257 256 249 234 233 235 228 247 248
97 95 106 112 115 127 123 117 106 94 91 111 106 104 106 93 80 80 100 116 146 143 66 54 17 345 355 241 229 211 207 209 230 258 252 294 297 264 215 217 243 235 235 242
97 97 98 102 106 117 122 105 108 120 123 275 124 101 118 115 120 26 147 152 187 144 95 92 151 217 219 296 322 196 219 217 202 217 245 244 256 271 212 216 244 235 224 235
90 91 92 93 92 95 121 93 112 124 104 127 139 124 152 133 132 121 141 139 113 162 128 147 169 236 197 231 197 220 178 210 217 226 237 266 264 198 188 204 240 239 227 236
105 105 104 102 100 93 116 81 92 122 104 123 136 135 144 141 148 139 164 88 6 133 177 153 225 178 226 214 217 207 218 213 220 224 226 246 174 177 194 234 242 293 229 234
105 108 104 101 102 99 93 93 98 104 103 137 152 148 159 169 157 131 158 112 144 173 191 229 250 312 261 200 266 211 242 227 231 206 218 256 221 282 75 312 350 255 289 272
91 91 91 88 89 100 108 112 118 113 103 104 127 159 184 186 185 183 143 196 176 162 201 242 245 245 172 251 241 255 265 7 240 243 253 331 316 303 358 351 339 324 326 305
85 86 87 89 90 96 97 122 117 107 106 106 155 149 162 184 191 202 216 203 190 204 216 230 235 215 220 241 234 208 118 331 334 264 31 348 79 11 354 333 329 314 313 332
85 86 86 89 93 92 105 119 111 103 113 143 142 158 159 163 174 175 247 236 234 207 167 193 232 236 241 228 158 69 5 5 306 288 340 319 296 308 333 334 331 325 323 310
78 87 93 92 96 100 114 99 74 104 99 107 93 102 131 200 238 271 286 259 236 220 189 215 240 140 334 270 79 56 359 328 304 285 307 295 298 308 323 330 329 324 318 315
71 79 70 66 64 59 71 92 96 98 108 90 60 3 107 313 266 243 43 203 214 222 227 228 62 14 29 27 57 344 340 326 315 311 322 303 328 320 323 328 329 329 316 310
61 70 73 76 73 70 72 77 98 116 96 72 98 268 95 19 21 35 11 330 225 226 246 40 60 25 25 63 336 337 339 338 306 332 321 304 315 327 341 349 345 349 353 357
38 45 54 52 50 58 74 73 72 62 109 113 72 105 263 356 25 332 2 344 338 31 53 73 89 324 43 307 325 336 340 339 319 329 309 333 355 11 8 7 10 9 9 14
17 15 23 71 57 77 88 45 47 39 33 48 89 354 305 352 353 357 0 6 233 51 70 98 63 99 127 350 348 342 342 336 333 331 337 350 1 9 17 16 12 16 15 20
183 153 108 111 116 109 67 59 43 351 31 21 14 20 331 13 43 271 16 261 293 10 142 157 128 88 10 340 353 356 352 336 329 327 326 338 352 2 10 23 23 26 28 34
163 137 124 117 80 64 76 7 347 40 195 347 349 339 324 320 351 44 351 205 28 246 319 92 76 91 338 347 358 5 359 348 345 347 355 4 12 20 25 25 29 35 37 40
125 97 81 22 357 48 79 152 329 27 339 6 350 321 330 317 352 318 37 49 232 308 45 143 166 323 342 354 358 10 7 1 355 3 13 19 24 29 31 30 34 38 42 45
86 41 32 52 356 37 180 182 187 21 296 326 321 273 335 334 3 72 60 243 55 42 43 260 228 335 343 355 359 3 8 10 7 12 18 24 28 31 32 31 31 36 41 40
69 45 66 59 163 150 36 287 316 327 307 324 293 303 292 325 36 40 27 14 345 189 228 242 333 336 340 351 359 4 6 9 10 13 19 24 26 27 29 29 30 34 37 38
58 66 93 123 82 2 228 257 2 322 332 287 189 89 47 351 136 58 203 119 231 254 223 309 321 335 343 354 5 9 6 7 9 11 15 17 18 22 24 22 24 26 26 27
58 49 90 101 90 107 78 28 6 348 331 270 108 65 218 55 38 337 185 203 224 274 313 325 341 3 23 21 5 6 3 5 8 12 14 16 18 20 18 21 22 20 20 19
Wind_Speed_850mb
97 106 101 93 93 91 92 45 8 126 145 30 13 19 18 17 10 10 10 11 12 15 15 16 22 21 11 27 29 33 27 7 10 22 5 32 37 20 23 13 14 9 3 26
96 96 85 90 92 105 78 35 49 113 131 17 10 8 9 10 9 6 7 8 6 5 14 10 11 15 17 27 25 15 17 11 16 8 10 3 27 38 34 29 2 29 24 33
90 87 80 81 90 94 80 32 15 27 33 18 27 25 8 13 12 9 11 10 10 9 7 4 13 11 7 16 22 38 28 9 16 22 10 6 26 40 51 47 31 44 32 63
71 77 79 81 101 109 69 28 11 19 12 14 12 12 9 23 11 7 8 8 6 14 8 6 7 1 6 3 2 10 12 8 9 31 35 25 19 32 41 51 54 35 57 58
69 79 74 85 91 64 66 22 20 30 8 53 30 9 3 11 5 10 3 14 12 9 13 10 9 11 7 7 9 7 9 18 23 43 38 31 45 47 36 50 51 51 61 59
104 113 90 80 68 63 39 66 68 37 15 24 17 7 10 11 16 6 19 18 11 5 8 7 5 9 12 11 4 2 7 1 8 43 12 24 35 56 60 59 51 52 58 80
102 82 65 48 50 54 94 72 52 26 9 14 9 10 9 11 6 15 6 19 9 10 16 8 5 14 25 26 25 26 10 10 5 27 11 32 35 32 48 55 67 58 62 76
97 79 66 59 55 58 80 60 50 20 10 12 19 20 18 23 17 8 10 9 18 19 11 7 11 9 8 18 34 37 39 19 11 15 22 23 36 32 24 47 72 64 59 70
87 82 77 70 67 60 67 45 38 43 20 2 33 15 14 8 7 7 3 13 15 11 5 7 9 7 11 10 8 15 30 32 20 16 13 20 49 22 42 34 47 61 61 80
63 69 69 64 57 43 39 50 42 49 22 13 28 9 11 21 9 7 6 7 7 15 6 6 7 9 10 7 13 7 7 15 38 40 33 19 41 19 31 31 44 59 80 89
65 63 63 64 61 48 34 55 39 34 25 25 16 20 28 26 28 8 12 9 3 4 4 7 8 8 12 9 18 13 22 15 18 24 19 38 17 17 35 33 82 34 61 99
34 28 28 27 27 26 24 40 37 39 26 21 22 22 23 23 26 26 21 5 11 13 6 4 6 4 4 3 11 11 25 30 22 17 17 11 28 15 6 13 26 22 31 47
33 30 26 23 22 19 21 29 28 30 31 20 15 12 25 28 30 29 14 11 11 12 11 3 7 14 5 7 10 12 9 20 25 30 43 13 31 17 38 38 39 42 28 26
31 30 29 27 25 24 20 27 27 21 17 9 4 12 13 21 23 26 30 11 12 10 8 5 6 4 11 7 7 6 1 17 20 16 11 31 10 39 69 54 46 43 34 23
31 30 29 29 28 25 24 28 25 19 7 11 14 15 14 16 13 9 6 13 24 11 9 6 7 10 10 8 5 6 14 10 5 9 31 27 43 50 70 63 63 53 53 43
40 38 35 32 30 24 13 10 18 9 10 8 4 8 7 14 12 16 27 20 23 15 12 6 12 1 12 5 5 12 23 24 28 22 62 60 72 56 46 60 56 48 40 35
27 19 17 17 16 13 13 12 12 12 9 5 6 5 5 2 8 3 2 5 14 16 8 10 4 15 14 5 3 36 40 42 42 30 47 22 29 38 61 53 45 31 28 23
21 21 23 23 21 26 28 27 15 10 4 5 6 4 5 19 8 7 6 2 4 9 5 7 6 10 9 4 15 32 41 54 14 49 27 34 37 34 42 44 40 27 26 24
10 11 11 11 9 8 10 15 20 19 7 11 7 5 5 24 14 7 4 4 3 1 4 5 5 3 5 3 23 29 42 38 48 58 29 32 35 37 42 48 46 43 42 36
3 2 4 5 6 8 8 7 4 7 17 15 4 5 4 17 17 9 14 5 3 1 4 9 5 2 1 17 25 29 36 41 39 48 41 51 50 50 47 46 44 42 39 36
4 5 4 7 6 5 5 9 15 17 9 17 11 11 4 18 6 3 8 3 3 2 2 3 2 2 5 28 25 27 30 32 28 26 24 24 30 38 41 42 42 43 43 43
11 11 11 7 5 7 13 2 8 11 1 16 8 11 9 9 6 3 6 2 5 6 11 4 2 2 18 24 26 25 26 29 29 26 26 26 28 33 37 38 39 41 40 40
10 5 6 14 17 16 8 1 6 4 8 13 17 6 12 8 5 2 5 6 7 6 7 2 2 7 20 23 25 24 24 25 26 26 25 25 26 36 42 40 38 37 39 40
5 10 13 9 9 4 6 5 5 1 6 16 14 8 5 8 8 2 6 6 6 7 6 4 1 15 18 19 22 25 27 29 30 31 32 33 33 33 35 38 37 39 42 39
12 11 6 5 4 3 0 5 5 2 10 13 2 5 4 4 5 5 4 12 4 6 5 3 6 16 17 19 22 23 24 27 30 31 34 35 35 35 36 38 35 36 36 37
12 14 12 7 4 1 3 3 2 7 10 2 1 3 7 5 4 7 6 7 7 6 5 8 16 14 16 16 17 20 23 25 27 30 33 35 36 37 37 36 36 39 39 40
10 11 17 12 12 6 3 4 10 14 7 1 5 5 10 1 6 4 7 7 6 5 10 9 10 10 9 10 15 19 22 25 28 29 31 32 32 31 30 34 39 40 39 39
Wind_Direction_850mb
170 167 174 174 174 168 172 149 169 160 151 144 157 158 145 115 136 95 100 98 114 158 147 162 191 207 220 203 157 202 183 233 214 212 189 214 206 206 208 206 217 238 160 258
161 166 171 170 173 167 147 148 117 150 149 148 130 122 97 101 116 106 121 118 125 135 149 139 192 176 239 252 178 174 167 215 258 323 244 336 217 214 207 219 51 215 223 255
159 165 164 165 172 169 143 142 123 125 133 142 143 131 111 111 77 96 88 110 96 117 126 61 171 176 249 241 175 216 167 195 213 236 257 124 214 211 214 209 220 238 227 256
155 157 162 162 163 154 146 127 107 125 123 140 114 97 107 126 113 72 100 41 154 138 128 112 104 122 333 304 29 194 186 257 221 248 256 262 247 234 222 224 224 224 241 242
152 162 163 161 153 160 142 110 141 84 75 135 119 115 219 117 119 118 80 115 179 157 143 157 140 135 205 243 4 200 192 241 253 263 257 246 247 250 260 231 233 237 248 254
125 134 124 138 149 149 118 126 120 119 111 144 122 164 162 114 121 14 157 153 130 167 189 159 209 226 237 238 108 10 317 46 204 265 252 256 252 237 235 231 243 227 230 238
114 125 115 110 139 161 134 123 115 105 83 112 119 114 92 131 126 129 139 142 105 151 123 104 178 224 235 221 232 208 239 254 312 273 292 257 256 249 234 233 235 228 247 248
97 95 106 112 115 127 123 117 106 94 91 111 106 104 106 93 80 80 100 116 146 143 66 54 17 345 355 241 229 211 207 209 230 258 252 294 297 264 215 217 243 235 235 242
97 97 98 102 106 117 122 105 108 120 123 275 124 101 118 115 120 26 147 152 187 144 95 92 151 217 219 296 322 196 219 217 202 217 245 244 256 271 212 216 244 235 224 235
90 91 92 93 92 95 121 93 112 124 104 127 139 124 152 133 132 121 141 139 113 162 128 147 169 236 197 231 197 220 178 210 217 226 237 266 264 198 188 204 240 239 227 236
105 105 104 102 100 93 116 81 92 122 104 123 136 135 144 141 148 139 164 88 6 133 177 153 225 178 226 214 217 207 218 213 220 224 226 246 174 177 194 234 242 293 229 234
105 108 104 101 102 99 93 93 98 104 103 137 152 148 159 169 157 131 158 112 144 173 191 229 250 312 261 200 266 211 242 227 231 206 218 256 221 282 75 312 350 255 289 272
91 91 91 88 89 100 108 112 118 113 103 104 127 159 184 186 185 183 143 196 176 162 201 242 245 245 172 251 241 255 265 7 240 243 253 331 316 303 358 351 339 324 326 305
85 86 87 89 90 96 97 122 117 107 106 106 155 149 162 184 191 202 216 203 190 204 216 230 235 215 220 241 234 208 118 331 334 264 31 348 79 11 354 333 329 314 313 332
85 86 86 89 93 92 105 119 111 103 113 143 142 158 159 163 174 175 247 236 234 207 167 193 232 236 241 228 158 69 5 5 306 288 340 319 296 308 333 334 331 325 323 310
78 87 93 92 96 100 114 99 74 104 99 107 93 102 131 200 238 271 286 259 236 220 189 215 240 140 334 270 79 56 359 328 304 285 307 295 298 308 323 330 329 324 318 315
71 79 70 66 64 59 71 92 96 98 108 90 60 3 107 313 266 243 43 203 214 222 227 228 62 14 29 27 57 344 340 326 315 311 322 303 328 320 323 328 329 329 316 310
61 70 73 76 73 70 72 77 98 116 96 72 98 268 95 19 21 35 11 330 225 226 246 40 60 25 25 63 336 337 339 338 306 332 321 304 315 327 341 349 345 349 353 357
38 45 54 52 50 58 74 73 72 62 109 113 72 105 263 356 25 332 2 344 338 31 53 73 89 324 43 307 325 336 340 339 319 329 309 333 355 11 8 7 10 9 9 14
17 15 23 71 57 77 88 45 47 39 33 48 89 354 305 352 353 357 0 6 233 51 70 98 63 99 127 350 348 342 342 336 333 331 337 350 1 9 17 16 12 16 15 20
183 153 108 111 116 109 67 59 43 351 31 21 14 20 331 13 43 271 16 261 293 10 142 157 128 88 10 340 353 356 352 336 329 327 326 338 352 2 10 23 23 26 28 34
163 137 124 117 80 64 76 7 347 40 195 347 349 339 324 320 351 44 351 205 28 246 319 92 76 91 338 347 358 5 359 348 345 347 355 4 12 20 25 25 29 35 37 40
125 97 81 22 357 48 79 152 329 27 339 6 350 321 330 317 352 318 37 49 232 308 45 143 166 323 342 354 358 10 7 1 355 3 13 19 24 29 31 30 34 38 42 45
86 41 32 52 356 37 180 182 187 21 296 326 321 273 335 334 3 72 60 243 55 42 43 260 228 335 343 355 359 3 8 10 7 12 18 24 28 31 32 31 31 36 41 40
69 45 66 59 163 150 36 287 316 327 307 324 293 303 292 325 36 40 27 14 345 189 228 242 333 336 340 351 359 4 6 9 10 13 19 24 26 27 29 29 30 34 37 38
58 66 93 123 82 2 228 257 2 322 332 287 189 89 47 351 136 58 203 119 231 254 223 309 321 335 343 354 5 9 6 7 9 11 15 17 18 22 24 22 24 26 26 27
58 49 90 101 90 107 78 28 6 348 331 270 108 65 218 55 38 337 185 203 224 274 313 325 341 3 23 21 5 6 3 5 8 12 14 16 18 20 18 21 22 20 20 19